www.pogodaiklimat.ru

Погода и климат >> Архив погоды >> Венгрия >> Эгер


ПОГОДА в Эгере

  • Прогноз погоды в Эгере
  • Монитор погоды в Эгере

АРХИВ ПОГОДЫ в Эгере

Время (UTC), дата Ветер
(напр.,м/с)
 
Видим.   Явления Облачность Т
(С)
Тd
(С)
f
(%)
Тe
(С)
Тes
(С)
Комфортность P
(гПа)
Po
(гПа)
Тmin
(С)
Tmax
(С)
R
(мм)
R24
(мм)
S
(см)
16 15.03 З 4
{10}
н/о н/о +10.0 -2.0 43 +8 +8 1007.4 980.3
17 15.03 З 2
{8}
н/о н/о +9.2 -1.8 46 +8 +8 1007.9 980.7
18 15.03 З 2 8000 м 9/0
[Cs]
+8.6 -1.8 48 +7 +7 1008.0 980.7 +12.0
19 15.03 ЮЗ 2 н/о н/о +8.2 -1.1 52 +7 +7 1007.9 980.6
20 15.03 ЮЗ 7
{14}
н/о н/о +7.7 +2.4 69 +3 +3 1008.2 980.8
21 15.03 З 2
{12}
н/о н/о +7.6 +2.1 68 +6 +6 1007.6 980.2
22 15.03 З 2
{7}
н/о н/о +6.7 +3.0 77 +5 +5 1007.5 980.1
23 15.03 ЮЗ 4
{7}
н/о н/о +6.3 +3.3 81 +3 +3 1006.8 979.3
00 16.03 ЮЗ 4
{8}
н/о н/о +6.0 +3.7 85 +2 +2 1006.2 978.7
01 16.03 ЮЗ 4
{8}
н/о н/о +5.9 +4.5 91 +2 +2 1004.8 977.4
02 16.03 ЮЗ 3
{9}
н/о н/о +5.9 +4.5 91 +3 +3 1003.7 976.3
03 16.03 ЮЗ 4
{8}
н/о н/о +6.1 +3.9 86 +2 +2 1003.3 975.9
04 16.03 СЗ 1
{9}
н/о н/о +6.4 +4.9 90 +5 +5 1005.3 977.9
05 16.03 СЗ 4
{11}
н/о н/о +7.3 +4.8 84 +4 +4 1005.0 977.7
06 16.03 З 7
{14}
35 км в посл. час дождь 10/0
[Ac As]
+7.0 +2.1 71 +2 +2 1005.4 978.0 +5.7 1
07 16.03 З 7
{15}
н/о н/о +7.2 +1.7 68 +3 +3 1006.5 979.1
08 16.03 З 7
{15}
н/о н/о +8.1 +1.0 61 +4 +4 1007.6 980.3
09 16.03 СЗ 7
{16}
35 км 10/3 1000 м
[Cu hum Cs]
+9.3 +0.2 53 +6 +6 1008.1 980.9
10 16.03 СЗ 6
{15}
н/о н/о +10.0 -1.1 46 +7 +7 1008.9 981.7
11 16.03 СЗ 5
{14}
н/о н/о +11.5 -2.3 38 +9 +9 1008.9 981.9
12 16.03 З 7
{13}
35 км 8/4 1500 м
[Cu Sc Cs]
+10.5 +1.1 52 +7 +7 1009.2 982.1
13 16.03 З 7
{13}
н/о н/о +10.7 +0.7 50 +8 +8 1009.5 982.4
14 16.03 З 7
{14}
н/о н/о +10.3 +0.1 49 +7 +7 1010.2 983.0
15 16.03 З 5
{12}
35 км 9/9 1200 м
[Cu Sc Ci sp]
+9.5 +0.4 53 +7 +7 1010.8 983.5
16 16.03 З 5
{13}
н/о н/о +8.8 +1.0 58 +6 +6 1011.6 984.2
17 16.03 З 3
{9}
н/о н/о +8.4 +1.8 63 +6 +6 1012.2 984.8
18 16.03 З 4
{9}
6000 м 9/9 1200 м
[Sc]
+7.8 +1.9 66 +5 +5 1012.7 985.2 +11.6
19 16.03 З 3 н/о н/о +7.2 +1.9 69 +5 +5 1013.1 985.6
20 16.03 СЗ 2 н/о н/о +7.1 +2.6 73 +5 +5 1013.1 985.5
21 16.03 СЗ 1 400 м туман ?/? +7.0 +2.9 75 +6 +6 1013.4 985.8
22 16.03 СЗ 1 н/о н/о +6.7 +2.8 76 +6 +6 1013.5 985.9
23 16.03 С 1 н/о н/о +6.8 +3.2 78 +6 +6 1013.7 986.1
00 17.03 С 2 6000 м 9/9 1200 м
[Sc]
+7.1 +3.3 77 +5 +5 1013.2 985.6
01 17.03 СЗ 2 н/о н/о +7.1 +3.5 78 +5 +5 1012.6 985.1
02 17.03 З 1 н/о н/о +6.0 +2.8 80 +5 +5 1012.7 985.0
03 17.03 ЮВ 1 6000 м 6/6 1200 м
[Sc]
+5.5 +3.2 85 +4 +4 1012.5 984.8
04 17.03 штиль 0 н/о н/о +3.9 +2.4 90 +3 +3 1012.9 985.0
05 17.03 штиль 0 н/о н/о +3.1 +1.8 91 +2 +2 1012.8 984.9
06 17.03 ЮВ 1 30 км 1/1 600 м
[Cu hum]
+5.4 +3.4 87 +4 +4 1012.6 984.9 +2.7
07 17.03 Ю 1 н/о н/о +7.3 +3.2 75 +7 +7 1012.6 985.1
08 17.03 Ю 2 н/о н/о +10.2 +4.4 67 +9 +9 1012.3 985.1
09 17.03 ЮВ 2 н/о н/о +12.2 +4.7 60 +11 +11 1012.2 985.2
10 17.03 Ю 2 н/о н/о +14.4 +5.2 54 +14 +14 1011.8 985.0
11 17.03 Ю 3 н/о н/о +16.0 +6.4 53 +16 +16 1011.3 984.6
12 17.03 Ю 3 30 км 8/0
[Cs]
+17.4 +5.7 46 +17 +17 1010.5 984.0
13 17.03 Ю 4
{7}
н/о н/о +19.3 +5.7 41 +20 +20 1009.6 983.3
14 17.03 ЮЗ 4
{7}
н/о н/о +19.8 +4.7 37 +20 +20 1009.1 982.8
15 17.03 Ю 5
{8}
н/о н/о +20.0 +5.3 38 +21 +21 комфорт 1008.2 982.0
16 17.03 Ю 5
{8}
н/о н/о +19.6 +5.6 40 +20 +20 1007.7 981.4
17 17.03 ЮВ 4
{7}
н/о н/о +17.1 +5.4 46 +17 +17 1007.8 981.3
18 17.03 Ю 3 30 км 4/0
[Ci sp]
+15.5 +5.1 50 +15 +15 1007.9 981.3 +20.8
19 17.03 Ю 3 н/о н/о +15.0 +4.4 49 +14 +14 1008.0 981.3
20 17.03 ЮВ 3 н/о н/о +13.9 +3.7 50 +13 +13 1007.6 980.8
21 17.03 ЮВ 3 н/о н/о +13.5 +3.0 49 +13 +13 1007.4 980.6
22 17.03 ЮВ 2 н/о н/о +12.3 +2.7 52 +12 +12 1007.5 980.6
23 17.03 ЮВ 1 н/о н/о +10.8 +2.4 56 +11 +11 1007.6 980.5
00 18.03 Ю 1 н/о н/о +10.4 +2.7 59 +10 +10 1007.4 980.3
01 18.03 СЗ 2 н/о н/о +8.9 +3.5 69 +7 +7 1007.1 979.9
02 18.03 ЮЗ 2 н/о н/о +8.6 +3.6 71 +7 +7 1007.0 979.8
03 18.03 СЗ 1 н/о н/о +7.4 +3.1 74 +7 +7 1007.5 980.1
04 18.03 СЗ 2 н/о н/о +5.5 +2.2 79 +3 +3 1008.4 980.8
05 18.03 СЗ 2 н/о н/о +7.7 +4.3 79 +6 +6 1009.3 981.9
06 18.03 СЗ 2 30 км 9/1 480 м
[Cu hum Cs]
+8.7 +4.1 73 +7 +7 1010.2 982.9 +5.1
07 18.03 СЗ 4
{7}
н/о н/о +10.9 +4.1 63 +9 +9 1010.8 983.7
08 18.03 С 3 н/о н/о +11.6 +3.9 59 +10 +10 1011.7 984.6
09 18.03 СЗ 3
{7}
н/о н/о +9.5 +2.1 60 +8 +8 1013.1 985.8
10 18.03 СЗ 3 н/о н/о +9.5 +2.1 60 +8 +8 1013.8 986.5
11 18.03 СЗ 2 н/о н/о +10.2 +2.1 57 +9 +9 1014.0 986.7
12 18.03 СЗ 3 35 км 10/10 1200 м
[Sc]
+10.3 +1.7 55 +9 +9 1014.5 987.2
13 18.03 СЗ 4
{7}
н/о н/о +9.9 +1.0 54 +8 +8 1014.5 987.2
14 18.03 СЗ 5
{8}
н/о н/о +9.1 +2.4 63 +6 +6 1014.8 987.4
15 18.03 СЗ 6
{11}
н/о н/о +7.2 +3.1 75 +3 +3 1015.6 988.0
16 18.03 СЗ 6
{11}
н/о н/о +6.4 +2.5 76 +2 +2 1016.3 988.6
17 18.03 СЗ 5
{10}
н/о н/о +6.1 +2.7 79 +2 +2 1016.5 988.8
18 18.03 СЗ 5
{8}
6000 м {дождь} 10/6 400 м
[Cu Sc Ac As]
+6.0 +2.5 78 +2 +2 1017.9 990.1 +12.1
19 18.03 СЗ 4
{8}
н/о н/о +6.3 +2.0 74 +3 +3 1018.5 990.7
20 18.03 СЗ 3
{8}
н/о н/о +6.2 +0.5 67 +3 +3 1019.0 991.2
21 18.03 СЗ 2 н/о н/о +5.6 +1.9 77 +3 +3 1019.5 991.6
22 18.03 З 1 н/о н/о +5.2 +1.5 77 +4 +4 1020.0 992.1
23 18.03 С 1 н/о н/о +3.7 +1.1 83 +2 +2 1020.6 992.5
00 19.03 С 2 н/о н/о +3.5 +0.9 83 +1 +1 1021.0 992.9
01 19.03 СЗ 3 н/о н/о +2.3 0.0 85 -2 -2 1021.2 992.9
02 19.03 С 3 н/о н/о +2.5 -0.1 83 -2 -2 1021.2 993.0
03 19.03 С 3 н/о н/о +2.4 -0.4 82 -2 -2 1021.8 993.5
04 19.03 С 3 н/о н/о +1.8 -0.4 85 -2 -2 1022.2 993.9
05 19.03 С 3 н/о н/о +3.0 -0.1 80 -1 -1 1022.5 994.3
06 19.03 С 4 30 км 10/1 1200 м
[Sc Ac As]
+3.3 +0.2 80 -1 -1 1022.9 994.7 +1.7
07 19.03 С 3 н/о н/о +4.9 +1.0 76 +2 +2 1022.9 994.9
08 19.03 СЗ 2 н/о н/о +5.9 +1.8 75 +4 +4 1023.5 995.5
09 19.03 СЗ 1 н/о н/о +7.6 +1.4 65 +7 +7 1023.5 995.7
10 19.03 З 2 н/о н/о +9.3 -1.4 47 +8 +8 1023.7 996.1
11 19.03 СЗ 3 н/о н/о +9.2 -2.7 43 +7 +7 1023.6 996.0
12 19.03 СЗ 4
{7}
35 км 10/1 1500 м
[Cu hum Ac As]
+9.5 -3.1 41 +7 +7 1023.2 995.6
13 19.03 СЗ 3 н/о н/о +9.4 -4.2 38 +8 +8 1023.4 995.8
14 19.03 СЗ 2 н/о н/о +9.4 -2.9 42 +8 +8 1023.4 995.8
15 19.03 СЗ 2 н/о н/о +9.6 -1.7 45 +9 +9 1023.8 996.2
16 19.03 СЗ 2 н/о н/о +9.0 -2.0 46 +8 +8 1024.3 996.6
17 19.03 СЗ 2 н/о н/о +8.3 -1.8 49 +7 +7 1025.1 997.3
18 19.03 СВ 2 30 км 9/9 1500 м
[Sc]
+7.8 -3.1 46 +6 +6 1025.9 998.1 +9.7
19 19.03 С 1 н/о н/о +7.1 -2.9 49 +7 +7 1026.7 998.8
20 19.03 В 4 н/о н/о +6.9 -4.8 43 +4 +4 1027.0 999.0
21 19.03 В 3
{8}
н/о н/о +5.9 -4.8 46 +3 +3 1027.6 999.5
22 19.03 С 2
{7}
н/о н/о +5.3 -4.5 49 +3 +3 1028.0 999.9
23 19.03 СЗ 2 н/о н/о +5.1 -4.7 49 +3 +3 1028.4 1000.2
00 20.03 СЗ 2 н/о н/о +4.4 -4.8 51 +2 +2 1029.1 1000.8
01 20.03 СЗ 2 н/о н/о +4.0 -4.7 53 +2 +2 1029.4 1001.1
02 20.03 З 1 н/о н/о +3.7 -5.8 50 +3 +3 1029.5 1001.2
03 20.03 СЗ 1 н/о н/о +1.7 -5.4 59 +1 +1 1030.1 1001.5
04 20.03 штиль 0 н/о н/о +0.7 -5.3 64 0 0 1030.5 1001.8
05 20.03 С 1 н/о н/о -0.3 -5.7 67 -2 -2 1031.0 1002.2
06 20.03 С 1 35 км 3/3 1500 м
[Sc Ci sp]
+2.8 -5.3 55 +2 +2 1031.6 1003.1 -0.5
07 20.03 С 3 н/о н/о +6.6 -6.4 39 +4 +4 1031.7 1003.6
08 20.03 С 4
{8}
н/о н/о +7.7 -8.4 31 +5 +5 1031.9 1003.9
09 20.03 С 2
{7}
н/о н/о +8.9 -7.3 31 +8 +8 1032.1 1004.2
10 20.03 СЗ 5
{8}
н/о н/о +9.5 -8.6 27 +7 +7 1032.1 1004.3
11 20.03 СЗ 2
{9}
н/о н/о +10.8 -7.4 27 +10 +10 1031.9 1004.2
12 20.03 З 2
{7}
35 км 1/1 2000 м
[Cu hum]
+11.2 -8.1 25 +11 +11 1031.5 1003.8
13 20.03 СЗ 3
{7}
н/о н/о +11.8 -7.6 25 +11 +11 1031.2 1003.6
14 20.03 СЗ 3
{7}
н/о н/о +11.5 -7.8 25 +10 +10 1031.1 1003.5
15 20.03 СЗ 2 н/о н/о +11.6 -8.3 24 +11 +11 1031.3 1003.7
16 20.03 СЗ 3 н/о н/о +10.6 -7.1 28 +9 +9 1031.7 1004.0
17 20.03 В 4 н/о н/о +8.3 -7.0 33 +6 +6 1032.7 1004.7
18 20.03 СЗ 1 30 км ясно +6.6 -7.0 37 +6 +6 1033.6 1005.4 +12.3
19 20.03 С 2 н/о н/о +6.0 -7.2 38 +4 +4 1034.1 1005.9
20 20.03 С 2 н/о н/о +4.6 -6.9 43 +3 +3 1034.7 1006.3
21 20.03 СВ 2 н/о н/о +5.1 -6.4 43 +3 +3 1034.9 1006.6
22 20.03 СЗ 2 н/о н/о +4.3 -6.6 45 +2 +2 1035.3 1006.9
23 20.03 С 3 н/о н/о +2.9 -6.5 50 -0 -0 1035.9 1007.3
00 21.03 С 3 н/о н/о +2.8 -6.3 51 -1 -1 1036.2 1007.6
01 21.03 С 4 н/о н/о +1.6 -6.5 55 -3 -3 1035.8 1007.1
02 21.03 С 3 н/о н/о +0.4 -6.5 60 -4 -4 1036.0 1007.1
03 21.03 С 4 н/о н/о +0.9 -6.4 58 -4 -4 1035.8 1007.0
04 21.03 С 3 н/о н/о -0.5 -6.3 65 -5 -5 1036.1 1007.1
05 21.03 С 3 н/о н/о -0.4 -6.2 65 -5 -5 1036.5 1007.5
06 21.03 С 3 35 км 8/0
[Cs]
+0.9 -5.3 63 -3 -3 1036.9 1008.1 -1.1
07 21.03 С 2 н/о н/о +4.8 -4.5 51 +3 +3 1036.7 1008.3
08 21.03 СЗ 2 н/о н/о +8.5 -4.7 39 +7 +7 1036.6 1008.5
09 21.03 З 2 н/о н/о +10.0 -5.9 32 +9 +9 1036.2 1008.3
10 21.03 З 2 н/о н/о +11.5 -5.0 31 +11 +11 1035.9 1008.2
11 21.03 СЗ 2 н/о н/о +12.2 -5.8 28 +12 +12 1035.2 1007.5
12 21.03 З 2
{7}
30 км 9/0
[Cs]
+13.3 -6.3 25 +13 +13 1034.2 1006.7
13 21.03 З 2 н/о н/о +14.1 -6.2 24 +14 +14 1033.2 1005.8
14 21.03 З 2 н/о н/о +13.9 -6.3 24 +14 +14 1032.7 1005.3
15 21.03 З 2 н/о н/о +14.2 -7.8 21 +14 +14 1032.3 1004.9
16 21.03 З 2 н/о н/о +13.6 -6.6 24 +13 +13 1032.4 1004.9
17 21.03 З 2 н/о н/о +11.8 -6.1 28 +11 +11 1032.4 1004.8
18 21.03 С 2 30 км 3/0
[Ci sp]
+9.2 -6.6 32 +8 +8 1033.0 1005.1 +14.7
20 21.03 С 3 н/о н/о +7.5 -8.1 32 +6 +6 1033.3 1005.2
21 21.03 С 3 н/о н/о +6.7 -7.0 37 +4 +4 1033.4 1005.3
23 21.03 С 3 н/о н/о +8.3 -4.5 40 +6 +6 1033.1 1005.1
00 22.03 С 3 н/о н/о +7.1 -4.6 43 +5 +5 1033.2 1005.1
01 22.03 С 2 н/о н/о +6.5 -4.6 45 +5 +5 1033.3 1005.1
02 22.03 СВ 2 н/о н/о +5.8 -6.1 42 +4 +4 1033.4 1005.2
04 22.03 С 1 н/о н/о +2.7 -5.0 57 +2 +2 1033.6 1005.0
05 22.03 С 1 н/о н/о +2.7 -4.3 60 +2 +2 1033.7 1005.1
06 22.03 С 1 30 км ясно +4.8 -3.0 57 +4 +6 1033.6 1005.3 +2.1
08 22.03 Ю 2 н/о н/о +12.4 +2.0 49 +12 +12 1033.1 1005.5
09 22.03 Ю 2 н/о н/о +13.7 +2.0 45 +13 +13 1032.8 1005.3
10 22.03 Ю 3 н/о н/о +15.2 +1.3 39 +15 +15 1032.4 1005.1
11 22.03 Ю 3 н/о н/о +16.1 +2.2 39 +16 +16 1031.5 1004.3
12 22.03 Ю 2 30 км 3/0
[Ci sp]
+17.1 +1.5 35 +17 +17 1031.0 1003.9
13 22.03 Ю 2 н/о н/о +17.2 +2.0 36 +18 +18 1030.3 1003.2
14 22.03 Ю 2 н/о н/о +17.3 +1.3 34 +18 +18 1029.7 1002.7
15 22.03 Ю 2 н/о н/о +17.1 +1.5 35 +17 +17 1029.1 1002.1

 

Местоположение метеостанции Эгер (Венгрия): широта 47.90 долгота 20.38 высота над уровнем моря 218 м.

В архиве по умолчанию представлена погода в Эгере за последнюю неделю. Архивные данные за месяц целиком и за предыдущие месяцы, начиная с января 2011 года, Вы можете получить, выбрав интересующий диапазон дат из раскрывающегося списка и нажав кнопку "Ввод!".


*Определитесь, кто Вы:
робот инопланетянин человек

Внимание! Время в таблицах - всемирное. Для получения местного времени необходимо прибавить поправку, которая равна 1 ч.

Смотрите также архив погоды в соседних городах и на ближайших метеорологических станциях:

Погода на Кекеше (Венгрия) (27 км)
Погода в Порозло (Венгрия) (34 км)
Погода в Мишкольце (Венгрия) (37 км)
Погода в Йосвафо (Венгрия) (65 км)
Погода в Лученце (Словакия) (68 км)
Погода в Сечене (Польша) (69 км)
Погода в Сольноке (Венгрия) (87 км)
Погода в Дебрецене (Венгрия) (103 км)
Погода в Будапеште (Венгрия) (104 км)
Погода в Кошице (Словакия) (106 км)

Пояснения к столбцам:

Ветер - указаны скорость ветра в м/с - средняя за 10 мин, порывы в срок и между сроками (в фигурных скобках) и направление, откуда дует ветер: С - северный, СВ - северо-восточный, В - восточный, ЮВ - юго-восточный, Ю - южный, ЮЗ - юго-западный, З - западный, СЗ - северо-западный.
Видимость - горизонтальная дальность видимости в метрах или километрах. При видимости от 1 до 10 км при отсутствии осадков обычно наблюдается дымка, при ухудшении видимости до 1 км и менее - туман. В сухую погоду видимость может ухудшаться дымом, пылью или мглою.
Явления - указаны атмосферные явления, наблюдавшиеся в срок или в последний час перед сроком; фигурными скобками обозначены явления, наблюдавшиеся между сроками (за 1-3 часа до срока); квадратными скобками обозначены град или гололедные отложения с указанием их диаметра в мм.
Облачность - указаны через наклонную черту общая и нижняя облачность в баллах и высота нижней границы облаков в метрах; квадратными скобками обозначены формы облаков: Ci - перистые, Cs - перисто-слоистые, Cc - перисто-кучевые, Ac - высококучевые, As - высокослоистые, Sc - слоисто-кучевые, Ns - слоисто-дождевые, Cu - кучевые, Cb - кучево-дождевые. Подробнее классификацию облаков см. в Атласе облаков (PDF).
T - Температура воздуха - температура, измеренная на высоте 2 м над землей.
Td - Температура точки росы - температура, при понижении до которой содержащийся в воздухе водяной пар достигнет насыщения.
f - Относительная влажность воздуха - влажноcть воздуха, измеренная на высоте 2 м над землей.
Te - Эффективная температура - температура, которую ощущает одетый по сезону человек в тени. Характеристика душности погоды. При расчете учитывается влияние влажности воздуха и скорости ветра на теплоощущения человека.
Tes - Эффективная температура на солнце - температура, которую ощущает человек, с поправкой на солнечный нагрев. Характеристика знойности погоды. Зависит от высоты солнца над горизонтом, облачности и скорости ветра. Ночью, в пасмурную погоду, а также при ветре 12 м/с и более поправка равна нулю.
P - Атмосферное давление - приведенное к уровню моря атмосферное давление.
Po - Атмосферное давление - измеренное на уровне метеостанции атмосферное давление.
Tmin - Минимальная температура - минимум температуры воздуха на высоте 2 м над землей.
Tmax - Максимальная температура - максимум температуры воздуха на высоте 2 м над землей.
R - Количество осадков - Количество выпавших осадков за период времени, мм. При наведении курсора мыши на число - период времени, за который выпало указанное количество осадков.
R24 - Количество осадков - Количество выпавших осадков за 24 часа, мм.
S - Снежный покров - Высота снежного покрова, см. При наведении курсора мыши на число - состояние снежного покрова и степень покрытия местности в баллах.